Simultaneous Nadir Overpasses (SNOs) Predictions

Prediction of SNOs between GOES-16 and METOP-B Satellite Orbit:

Table of predicted SNOs for the next 14.0 days since TLE Epoch: 8/23/2019
Index Date Time (GOES-16) GOES-16 Lat,Lon METOP-B Lat,Lon Distance(km) Time Diff (sec)
1 08/24/2019 02:22:23 -0.01, -75.21 0.34, -73.59 184.15 80
2 08/25/2019 14:43:55 0.01, -75.22 0.67, -78.15 333.23 80
3 08/26/2019 14:20:35 0.01, -75.23 -0.45, -73.15 236.12 80
4 08/28/2019 02:42:16 -0.02, -75.22 -0.59, -77.75 288.71 80
5 08/29/2019 02:18:56 -0.01, -75.22 0.52, -72.75 280.91 80
6 08/30/2019 14:40:27 0.02, -75.25 0.48, -77.31 235.67 80
7 08/31/2019 14:17:08 0.01, -75.26 -0.64, -72.32 334.31 80
8 09/02/2019 02:38:48 -0.02, -75.26 -0.40, -76.91 189.33 80
9 09/03/2019 02:15:29 -0.01, -75.27 0.72, -71.92 381.14 80
10 09/04/2019 14:37:00 0.02, -75.31 0.29, -76.48 134.09 80
11 09/05/2019 14:13:41 0.02, -75.32 -0.83, -71.49 436.65 80




NCC Satellite Simultaneous Nadir Overpasses (SNOs) Prediction Service
